EW7659 Weather Reports


Display with metric or nautical units.
time (UTC)temp
F
wind
direction
speed
MPH
gust
MPH
rain 1hr
in
rain 24hr
in
rain mn
in
humidity
%
barometer
mb
20260508120825 52 174 0.0 0.0 0.00 0.00 0.00 81 1007.2
20260508120323 52 174 0.0 1.0 0.00 0.00 0.00 81 1007.2
20260508115820 52 175 0.0 1.0 0.00 0.00 0.00 80 1007.3
20260508115323 52 175 0.0 3.0 0.00 0.00 0.00 79 1007.3
20260508115059 52 175 0.0 3.0 0.00 0.00 0.00 79 1007.4
20260508114543 53 175 0.0 3.0 0.00 0.00 0.00 78 1007.3
20260508114538 53 175 0.0 3.0 0.00 0.00 0.00 79 1007.4
20260508113314 53 175 0.0 1.0 0.00 0.00 0.00 78 1007.3
20260508112820 53 176 0.0 0.0 0.00 0.00 0.00 79 1007.0
20260508112316 52 176 0.0 0.0 0.00 0.00 0.00 79 1006.8
20260508111814 52 176 0.0 0.0 0.00 0.00 0.00 80 1006.9
20260508111320 52 176 0.0 0.0 0.00 0.00 0.00 80 1006.9
20260508110815 52 176 0.0 0.0 0.00 0.00 0.00 80 1006.9
20260508110315 51 176 0.0 0.0 0.00 0.00 0.00 81 1006.9
20260508105818 51 176 0.0 0.0 0.00 0.00 0.00 81 1006.8
20260508105312 51 176 0.0 0.0 0.00 0.00 0.00 81 1006.8
20260508104815 51 176 0.0 0.0 0.00 0.00 0.00 81 1006.8
20260508104314 51 176 0.0 0.0 0.00 0.00 0.00 81 1006.9
20260508104026 51 176 0.0 0.0 0.00 0.00 0.00 81 1006.8
20260508103306 51 176 0.0 0.0 0.00 0.00 0.00 81 1006.8
20260508102806 51 176 0.0 0.0 0.00 0.00 0.00 80 1006.9
20260508102529 51 176 0.0 0.0 0.00 0.00 0.00 80 1006.8
20260508101806 51 176 0.0 0.0 0.00 0.00 0.00 79 1006.8
20260508101306 51 176 0.0 0.0 0.00 0.00 0.00 79 1006.8
20260508101022 51 176 0.0 0.0 0.00 0.00 0.00 79 1006.8
20260508100305 51 176 0.0 0.0 0.00 0.00 0.00 79 1006.8
20260508095806 51 176 0.0 0.0 0.00 0.00 0.00 78 1006.8
20260508095306 51 176 0.0 0.0 0.00 0.00 0.00 78 1006.8
20260508094803 52 176 0.0 0.0 0.00 0.00 0.00 76 1006.7
20260508094307 52 176 0.0 0.0 0.00 0.00 0.00 76 1006.6
20260508093802 53 176 0.0 0.0 0.00 0.00 0.00 75 1006.6
20260508093307 53 176 0.0 0.0 0.00 0.00 0.00 75 1006.5
20260508092802 53 176 0.0 0.0 0.00 0.00 0.00 75 1006.5
20260508092312 53 176 0.0 0.0 0.00 0.00 0.00 74 1006.4
20260508092021 53 176 0.0 0.0 0.00 0.00 0.00 74 1006.3
20260508091302 53 176 0.0 0.0 0.00 0.00 0.00 74 1006.2
20260508090802 54 176 0.0 0.0 0.00 0.00 0.00 73 1006.2
20260508090302 54 176 0.0 0.0 0.00 0.00 0.00 73 1006.2
20260508090031 54 176 0.0 0.0 0.00 0.00 0.00 72 1006.1
20260508085754 54 176 0.0 0.0 0.00 0.00 0.00 72 1006.2
20260508084801 54 176 0.0 1.0 0.00 0.00 0.00 72 1006.1
20260508084303 54 176 0.0 1.0 0.00 0.00 0.00 72 1006.2
20260508083802 54 176 0.0 0.0 0.00 0.00 0.00 72 1006.2
20260508083540 54 176 0.0 0.0 0.00 0.00 0.00 72 1006.1
20260508082804 54 176 0.0 0.0 0.00 0.00 0.00 72 1006.1
20260508082306 54 176 0.0 0.0 0.00 0.00 0.00 72 1006.2
20260508081231 54 176 0.0 0.0 0.00 0.00 0.00 71 1006.2
20260508080730 55 176 0.0 0.0 0.00 0.00 0.00 71 1006.3
20260508080230 55 176 0.0 0.0 0.00 0.00 0.00 71 1006.4
20260508075730 55 176 0.0 0.0 0.00 0.00 0.00 70 1006.6
20260508075230 55 176 0.0 0.0 0.00 0.00 0.00 70 1006.7
20260508074726 55 176 0.0 0.0 0.00 0.00 0.00 70 1006.8
20260508074227 55 176 0.0 0.0 0.00 0.00 0.00 70 1006.8
20260508073725 55 176 0.0 0.0 0.00 0.00 0.00 70 1006.8
20260508073223 55 176 0.0 0.0 0.00 0.00 0.00 70 1006.8
20260508072721 55 176 0.0 0.0 0.00 0.00 0.00 70 1006.9
20260508072436 55 176 0.0 0.0 0.00 0.00 0.00 71 1007.0
20260508071716 55 176 0.0 0.0 0.00 0.00 0.00 71 1007.0
20260508071215 55 176 0.0 0.0 0.00 0.00 0.00 71 1007.2
20260508070711 55 176 0.0 0.0 0.00 0.00 0.00 70 1007.3
20260508070211 55 176 0.0 0.0 0.00 0.00 0.00 70 1007.3
20260508065709 55 176 0.0 1.0 0.00 0.00 0.00 70 1007.3
20260508065207 55 177 0.0 5.0 0.00 0.00 0.00 70 1007.3
20260508065146 55 177 0.0 5.0 0.00 0.00 0.00 70 1007.3
20260508064203 55 176 0.0 0.0 0.00 0.00 0.00 70 1007.3
20260508063703 56 176 0.0 0.0 0.00 0.00 0.00 69 1007.3
20260508063202 56 176 0.0 1.0 0.00 0.00 0.00 69 1007.3
20260508062702 56 176 0.0 4.0 0.00 0.00 0.00 69 1007.3
20260508062202 56 176 0.0 6.0 0.00 0.00 0.00 69 1007.4
20260508061702 56 175 0.0 6.0 0.00 0.00 0.00 68 1007.4
20260508061202 56 175 0.0 2.0 0.00 0.00 0.00 68 1007.4
20260508060703 56 175 0.0 2.0 0.00 0.00 0.00 68 1007.4
20260508060203 56 175 0.0 1.0 0.00 0.00 0.00 67 1007.4
20260508060151 56 175 0.0 0.0 0.00 0.00 0.00 67 1007.5
20260508055201 56 175 0.0 0.0 0.00 0.00 0.00 67 1007.5
20260508054658 56 175 0.0 0.0 0.00 0.00 0.00 67 1007.4
20260508054424 56 175 0.0 2.0 0.00 0.00 0.00 66 1007.4
20260508053704 56 175 0.0 2.0 0.00 0.00 0.00 66 1007.4
20260508053200 57 175 0.0 1.0 0.00 0.00 0.00 65 1007.5
20260508052655 57 175 0.0 2.0 0.00 0.00 0.00 65 1007.6
20260508052419 57 175 0.0 2.0 0.00 0.00 0.00 65 1007.6
20260508051655 57 174 0.0 1.0 0.00 0.00 0.00 64 1007.6
20260508051152 57 174 0.0 5.0 0.00 0.00 0.00 64 1007.6
20260508050651 58 174 0.0 5.0 0.00 0.00 0.00 64 1007.6
20260508050149 58 174 0.0 2.0 0.00 0.00 0.00 63 1007.6
20260508045646 58 183 0.0 1.0 0.00 0.00 0.00 63 1007.7
20260508045145 58 182 0.0 1.0 0.00 0.00 0.00 63 1007.7
20260508044642 58 182 0.0 3.0 0.00 0.00 0.00 63 1007.8
20260508044141 58 183 0.0 3.0 0.00 0.00 0.00 63 1007.8
20260508043638 58 182 0.0 6.0 0.00 0.00 0.00 62 1007.8
20260508043137 58 182 1.0 6.0 0.00 0.00 0.00 62 1007.9
20260508042638 58 183 1.0 3.0 0.00 0.00 0.00 61 1008.0
20260508042132 59 183 0.0 4.0 0.00 0.00 0.00 61 1008.1
20260508041632 59 182 1.0 4.0 0.00 0.00 0.00 61 1008.1
20260508041130 59 182 0.0 4.0 0.00 0.00 0.00 60 1008.1
20260508040630 59 182 1.0 5.0 0.00 0.00 0.00 60 1008.0
20260508040348 59 182 1.0 5.0 0.00 0.00 0.00 60 1008.0
20260508035630 59 180 0.0 1.0 0.00 0.00 0.00 60 1008.0
20260508035133 60 181 0.0 1.0 0.00 0.00 0.00 60 1008.0
20260508034631 60 181 0.0 1.0 0.00 0.00 0.00 59 1008.1
20260508034135 60 181 0.0 0.0 0.00 0.00 0.00 59 1008.0
20260508033630 60 181 0.0 0.0 0.00 0.00 0.00 58 1008.1
20260508033130 60 181 0.0 0.0 0.00 0.00 0.00 58 1008.1
20260508032630 60 181 0.0 0.0 0.00 0.00 0.00 57 1008.1
20260508032130 61 181 0.0 0.0 0.00 0.00 0.00 56 1008.0
20260508031628 61 181 0.0 0.0 0.00 0.00 0.00 55 1008.1
20260508031126 62 181 0.0 0.0 0.00 0.00 0.00 54 1008.2
20260508030627 62 181 0.0 3.0 0.00 0.00 0.00 54 1008.1
20260508030126 62 181 0.0 3.0 0.00 0.00 0.00 54 1008.1
20260508025626 62 181 0.0 0.0 0.00 0.00 0.00 53 1008.2
20260508025126 62 181 0.0 0.0 0.00 0.00 0.00 53 1008.2
20260508024621 62 181 0.0 0.0 0.00 0.00 0.00 53 1008.2
20260508024339 62 181 0.0 0.0 0.00 0.00 0.00 52 1008.2
20260508023609 63 181 0.0 0.0 0.00 0.00 0.00 52 1008.2
20260508023105 63 181 0.0 1.0 0.00 0.00 0.00 52 1008.1
20260508022604 63 181 0.0 1.0 0.00 0.00 0.00 51 1008.2
20260508022103 63 181 0.0 1.0 0.00 0.00 0.00 51 1008.1
20260508022043 63 181 0.0 0.0 0.00 0.00 0.00 51 1008.1
20260508021058 64 181 0.0 0.0 0.00 0.00 0.00 50 1008.0
20260508020821 64 181 0.0 0.0 0.00 0.00 0.00 50 1007.9
20260508020056 64 181 0.0 1.0 0.00 0.00 0.00 49 1007.9
20260508015557 64 181 0.0 1.0 0.00 0.00 0.00 49 1007.8
20260508015056 65 181 0.0 0.0 0.00 0.00 0.00 49 1007.7
20260508014556 65 181 0.0 1.0 0.00 0.00 0.00 49 1007.6
20260508014056 65 181 0.0 1.0 0.00 0.00 0.00 48 1007.5
20260508013553 66 181 0.0 0.0 0.00 0.00 0.00 48 1007.5
20260508013053 66 181 0.0 0.0 0.00 0.00 0.00 47 1007.4
20260508012815 66 181 0.0 0.0 0.00 0.00 0.00 46 1007.3
20260508012052 67 181 0.0 1.0 0.00 0.00 0.00 46 1007.3
20260508011551 67 181 0.0 1.0 0.00 0.00 0.00 46 1007.3
20260508011048 67 181 0.0 0.0 0.00 0.00 0.00 45 1007.3
20260508010548 68 181 0.0 0.0 0.00 0.00 0.00 45 1007.2
20260508010048 68 181 0.0 0.0 0.00 0.00 0.00 44 1007.0
20260508005546 68 181 0.0 0.0 0.00 0.00 0.00 43 1007.2
20260508005046 69 181 0.0 3.0 0.00 0.00 0.00 43 1007.0
20260508004811 69 181 0.0 3.0 0.00 0.00 0.00 42 1007.0
20260508004046 69 181 0.0 2.0 0.00 0.00 0.00 41 1007.0
20260508003546 70 181 0.0 1.0 0.00 0.00 0.00 39 1007.0
20260508003042 70 181 0.0 1.0 0.00 0.00 0.00 39 1006.9
20260508002542 70 181 0.0 1.0 0.00 0.00 0.00 39 1007.0
20260508002043 70 181 0.0 2.0 0.00 0.00 0.00 38 1007.0
20260508001543 70 181 0.0 2.0 0.00 0.00 0.00 37 1007.0
20260508001042 71 180 0.0 1.0 0.00 0.00 0.00 38 1007.0
20260508000806 71 182 0.0 1.0 0.00 0.00 0.00 37 1007.0
20260508000312 71 188 0.0 1.0 0.00 0.00 0.00 37 1007.2
20260507235542 72 188 0.0 1.0 0.00 0.00 0.00 37 1007.2
20260507235042 72 193 0.0 0.0 0.00 0.00 0.00 37 1007.3
20260507234538 72 193 0.0 3.0 0.00 0.00 0.00 38 1007.3
20260507234038 72 190 0.0 3.0 0.00 0.00 0.00 36 1007.2
20260507233538 72 190 0.0 4.0 0.00 0.00 0.00 35 1007.3
20260507233038 72 194 0.0 4.0 0.00 0.00 0.00 35 1007.2
20260507232538 72 184 0.0 2.0 0.00 0.00 0.00 35 1007.3
20260507232037 72 190 0.0 2.0 0.00 0.00 0.00 35 1007.3
20260507231540 72 193 0.0 2.0 0.00 0.00 0.00 35 1007.4
20260507231038 73 194 0.0 2.0 0.00 0.00 0.00 35 1007.4
20260507230802 73 188 0.0 4.0 0.00 0.00 0.00 35 1007.5
20260507230037 73 276 0.0 4.0 0.00 0.00 0.00 36 1007.5
20260507225537 73 170 0.0 2.0 0.00 0.00 0.00 35 1007.6
20260507225038 72 169 0.0 1.0 0.00 0.00 0.00 37 1007.7
20260507224801 72 169 0.0 1.0 0.00 0.00 0.00 37 1007.7
20260507224033 72 185 0.0 1.0 0.00 0.00 0.00 38 1007.8
20260507223752 72 183 0.0 2.0 0.00 0.00 0.00 35 1007.7
20260507223254 72 172 0.0 2.0 0.00 0.00 0.00 35 1007.8
20260507222530 73 175 0.0 2.0 0.00 0.00 0.00 35 1007.9
20260507222031 73 265 0.0 2.0 0.00 0.00 0.00 37 1007.9
20260507221529 72 218 0.0 2.0 0.00 0.00 0.00 37 1007.9
20260507221033 72 218 0.0 2.0 0.00 0.00 0.00 37 1008.0
20260507220530 73 165 0.0 7.0 0.00 0.00 0.00 35 1008.0
20260507220030 73 180 0.0 7.0 0.00 0.00 0.00 35 1008.0
20260507215530 73 259 0.0 4.0 0.00 0.00 0.00 39 1008.0
20260507215038 73 257 0.0 5.0 0.00 0.00 0.00 38 1008.1
20260507214536 73 225 0.0 5.0 0.00 0.00 0.00 35 1008.2
20260507214031 72 156 0.0 7.0 0.00 0.00 0.00 37 1008.2
20260507213740 72 256 0.0 9.0 0.00 0.00 0.00 36 1008.3
20260507213019 72 169 0.0 9.0 0.00 0.00 0.00 38 1008.4
20260507212508 72 169 0.0 5.0 0.00 0.00 0.00 38 1008.4
20260507212233 72 161 0.0 5.0 0.00 0.00 0.00 36 1008.6
20260507211511 72 155 0.0 9.0 0.00 0.00 0.00 40 1008.7
20260507211011 72 165 0.0 9.0 0.00 0.00 0.00 38 1008.8
20260507210510 72 254 1.0 5.0 0.00 0.00 0.00 36 1008.9
20260507210012 72 178 0.0 4.0 0.00 0.00 0.00 38 1009.0
20260507205506 72 175 0.0 1.0 0.00 0.00 0.00 37 1009.0
20260507205005 72 206 0.0 6.0 0.00 0.00 0.00 39 1009.1
20260507204506 72 227 0.0 6.0 0.00 0.00 0.00 39 1009.2
20260507204004 72 159 0.0 6.0 0.00 0.00 0.00 39 1009.3
20260507203504 72 232 0.0 0.0 0.00 0.00 0.00 41 1009.4
20260507203226 71 217 0.0 1.0 0.00 0.00 0.00 39 1009.4
20260507202502 71 218 0.0 1.0 0.00 0.00 0.00 41 1009.5
20260507202226 71 200 0.0 1.0 0.00 0.00 0.00 39 1009.7
20260507201504 71 154 0.0 1.0 0.00 0.00 0.00 38 1009.8
20260507201002 70 167 0.0 3.0 0.00 0.00 0.00 44 1009.7
20260507200725 70 167 0.0 6.0 0.00 0.00 0.00 39 1010.0
20260507200224 70 165 0.0 6.0 0.00 0.00 0.00 39 1010.1
20260507195452 70 225 0.0 1.0 0.00 0.00 0.00 39 1010.1
20260507195206 70 221 0.0 8.0 0.00 0.00 0.00 40 1010.3
20260507194448 70 232 0.0 8.0 0.00 0.00 0.00 39 1010.4
20260507193944 70 247 0.0 4.0 0.00 0.00 0.00 40 1010.4
20260507193443 70 258 0.0 5.0 0.00 0.00 0.00 43 1010.5
20260507192940 69 184 0.0 5.0 0.00 0.00 0.00 41 1010.6
20260507192437 69 248 0.0 5.0 0.00 0.00 0.00 42 1010.6
20260507191937 69 223 0.0 5.0 0.00 0.00 0.00 43 1010.7
20260507191437 69 164 0.0 4.0 0.00 0.00 0.00 39 1010.7
20260507190938 69 163 0.0 6.0 0.00 0.00 0.00 42 1010.8
20260507190436 69 238 1.0 8.0 0.00 0.00 0.00 43 1010.8
20260507185935 69 153 1.0 8.0 0.00 0.00 0.00 41 1010.9
20260507185435 69 190 0.0 3.0 0.00 0.00 0.00 42 1010.9
20260507184936 69 227 0.0 8.0 0.00 0.00 0.00 47 1010.9
20260507184435 69 309 0.0 8.0 0.00 0.00 0.00 42 1011.0
20260507183936 69 192 0.0 7.0 0.00 0.00 0.00 43 1011.1
20260507183439 68 280 0.0 7.0 0.00 0.00 0.00 43 1011.1
20260507182935 68 174 0.0 7.0 0.00 0.00 0.00 42 1011.2
20260507182434 68 282 1.0 7.0 0.00 0.00 0.00 43 1011.3
20260507181933 68 167 1.0 12.0 0.00 0.00 0.00 48 1011.3
20260507181431 68 168 1.0 12.0 0.00 0.00 0.00 42 1011.5
20260507180927 68 169 0.0 3.0 0.00 0.00 0.00 43 1011.5
20260507180421 67 175 0.0 3.0 0.00 0.00 0.00 44 1011.6
20260507175916 67 141 1.0 3.0 0.00 0.00 0.00 43 1011.7
20260507175416 67 271 0.0 5.0 0.00 0.00 0.00 45 1011.9
20260507174916 67 164 0.0 8.0 0.00 0.00 0.00 44 1011.9
20260507174418 66 233 0.0 8.0 0.00 0.00 0.00 43 1011.9
20260507173913 66 156 0.0 5.0 0.00 0.00 0.00 44 1011.9
20260507173414 66 225 0.0 5.0 0.00 0.00 0.00 44 1012.0
20260507173132 66 212 0.0 5.0 0.00 0.00 0.00 44 1012.0
20260507172630 66 186 0.0 2.0 0.00 0.00 0.00 43 1012.1
20260507172130 66 160 0.0 1.0 0.00 0.00 0.00 45 1012.2
20260507171408 66 211 1.0 7.0 0.00 0.00 0.00 45 1012.4
20260507170908 66 184 1.0 7.0 0.00 0.00 0.00 45 1012.6
20260507170410 66 176 0.0 6.0 0.00 0.00 0.00 44 1012.8
20260507165908 65 264 1.0 10.0 0.00 0.00 0.00 45 1012.7
20260507165408 65 186 1.0 10.0 0.00 0.00 0.00 46 1012.7
20260507164906 65 156 1.0 8.0 0.00 0.00 0.00 46 1012.8
20260507164404 65 159 0.0 8.0 0.00 0.00 0.00 46 1012.8
20260507163904 65 213 0.0 7.0 0.00 0.00 0.00 45 1012.9
20260507163403 65 166 0.0 7.0 0.00 0.00 0.00 46 1013.0
20260507162903 65 183 0.0 8.0 0.00 0.00 0.00 46 1013.1
20260507162400 64 245 0.0 8.0 0.00 0.00 0.00 47 1013.2
20260507161854 64 281 1.0 11.0 0.00 0.00 0.00 47 1013.2
20260507161835 64 217 0.0 11.0 0.00 0.00 0.00 48 1013.2
20260507160841 64 220 0.0 5.0 0.00 0.00 0.00 46 1013.3
20260507160336 64 194 0.0 1.0 0.00 0.00 0.00 47 1013.3
20260507155835 64 194 0.0 0.0 0.00 0.00 0.00 47 1013.3
20260507155331 63 177 0.0 1.0 0.00 0.00 0.00 47 1013.3
20260507154831 63 170 0.0 1.0 0.00 0.00 0.00 47 1013.4
20260507154331 63 200 0.0 1.0 0.00 0.00 0.00 48 1013.5
20260507153830 63 202 0.0 2.0 0.00 0.00 0.00 47 1013.5
20260507153330 63 202 0.0 2.0 0.00 0.00 0.00 48 1013.5
20260507152829 62 201 0.0 4.0 0.00 0.00 0.00 49 1013.6
20260507152552 62 203 0.0 4.0 0.00 0.00 0.00 50 1013.7
20260507151829 62 194 0.0 3.0 0.00 0.00 0.00 49 1013.7
20260507151330 62 193 0.0 3.0 0.00 0.00 0.00 50 1013.7
20260507151310 61 220 0.0 1.0 0.00 0.00 0.00 53 1013.8
20260507150328 61 220 0.0 1.0 0.00 0.00 0.00 52 1013.8
20260507145827 60 215 0.0 1.0 0.00 0.00 0.00 52 1013.9
20260507145546 60 217 0.0 1.0 0.00 0.00 0.00 53 1014.0
20260507144827 60 184 0.0 1.0 0.00 0.00 0.00 57 1014.1
20260507144327 60 184 0.0 1.0 0.00 0.00 0.00 53 1014.1
20260507143827 59 185 0.0 1.0 0.00 0.00 0.00 57 1014.2
20260507143327 58 185 0.0 7.0 0.00 0.00 0.00 58 1014.2
20260507142823 58 186 0.0 7.0 0.00 0.00 0.00 59 1014.2
20260507142323 58 166 0.0 4.0 0.00 0.00 0.00 57 1014.2
20260507141824 57 175 0.0 1.0 0.00 0.00 0.00 59 1014.2
20260507141323 57 175 0.0 1.0 0.00 0.00 0.00 59 1014.2
20260507140821 57 178 0.0 1.0 0.00 0.00 0.00 58 1014.3
20260507140322 57 175 0.0 1.0 0.00 0.00 0.00 58 1014.3
20260507135822 56 176 0.0 6.0 0.00 0.00 0.00 60 1014.2
20260507135321 56 175 0.0 6.0 0.00 0.00 0.00 62 1014.2
20260507134822 56 169 0.0 0.0 0.00 0.00 0.00 63 1014.2
20260507134805 55 49 0.0 0.0 0.00 0.00 0.00 61 1014.2
20260507133818 55 39 0.0 0.0 0.00 0.00 0.00 64 1014.2
20260507133318 54 40 0.0 0.0 0.00 0.00 0.00 67 1014.1
20260507132817 54 40 0.0 0.0 0.00 0.00 0.00 67 1014.1
20260507132317 53 40 0.0 0.0 0.00 0.00 0.00 70 1014.1
20260507132042 52 40 0.0 0.0 0.00 0.00 0.00 73 1014.1
20260507131317 51 40 0.0 0.0 0.00 0.00 0.00 77 1014.2
20260507130811 49 40 0.0 0.0 0.00 0.00 0.00 82 1014.2
20260507130311 48 36 0.0 0.0 0.00 0.00 0.00 88 1014.1
20260507125809 47 35 0.0 0.0 0.00 0.00 0.00 90 1014.1
20260507125531 47 35 0.0 0.0 0.00 0.00 0.00 92 1014.0
20260507124807 46 35 0.0 0.0 0.00 0.00 0.00 93 1014.0
20260507124305 46 35 0.0 0.0 0.00 0.00 0.00 93 1014.0
20260507123806 45 35 0.0 0.0 0.00 0.00 0.00 93 1013.9
20260507123303 44 35 0.0 0.0 0.00 0.00 0.00 93 1013.9
20260507122803 44 35 0.0 0.0 0.00 0.00 0.00 93 1013.8
20260507122306 44 35 0.0 0.0 0.00 0.00 0.00 93 1013.8
20260507121802 43 35 0.0 0.0 0.00 0.00 0.00 93 1013.7
20260507121302 43 35 0.0 0.0 0.00 0.00 0.00 93 1013.6